DW0884 Weather Reports


Display with metric or nautical units.
time (UTC)temp
F
wind
direction
speed
MPH
gust
MPH
rain 1hr
in
rain 24hr
in
rain mn
in
humidity
%
barometer
mb
20260503190052 71 300 2.0 6.0 0.00 0.00 0.00 54 1014.4
20260503184551 72 331 2.0 6.0 0.00 0.00 0.00 57 1014.5
20260503183053 70 290 2.0 5.0 0.00 0.00 0.00 54 1014.5
20260503181554 71 251 1.0 5.0 0.00 0.00 0.00 61 1014.5
20260503180058 70 0 3.0 5.0 0.00 0.00 0.00 58 1014.5
20260503174554 71 231 2.0 6.0 0.00 0.00 0.00 60 1014.7
20260503173053 69 309 1.0 4.0 0.00 0.00 0.00 58 1014.7
20260503171551 70 0 0.0 2.0 0.00 0.00 0.00 57 1014.8
20260503170105 68 229 1.0 3.0 0.00 0.00 0.00 61 1014.9
20260503160107 62 331 1.0 4.0 0.00 0.00 0.00 73 1015.3
20260503100106 50 0 0.0 0.0 0.00 0.00 0.00 88 1014.8
20260503081552 52 0 0.0 0.0 0.00 0.00 0.00 84 1014.9
20260503080103 53 0 0.0 0.0 0.00 0.00 0.00 82 1014.7
20260503071611 55 0 0.0 0.0 0.00 0.00 0.00 80 1014.4
20260503054610 60 281 1.0 2.0 0.00 0.00 0.00 68 1013.9
20260503053052 61 0 0.0 2.0 0.00 0.00 0.00 64 1014.0
20260503051554 61 5 1.0 2.0 0.00 0.00 0.00 63 1014.0
20260503050051 61 0 0.0 3.0 0.00 0.00 0.00 63 1014.1
20260503044552 61 0 0.0 3.0 0.00 0.00 0.00 63 1014.0
20260503043056 62 26 1.0 4.0 0.00 0.00 0.00 63 1014.0
20260503041553 61 157 0.0 3.0 0.00 0.00 0.00 61 1013.8
20260503040057 62 51 0.0 2.0 0.00 0.00 0.00 61 1013.7
20260503034551 63 0 0.0 2.0 0.00 0.00 0.00 58 1013.6
20260503033051 64 49 0.0 3.0 0.00 0.00 0.00 56 1013.6
20260503031550 65 217 0.0 4.0 0.00 0.00 0.00 55 1013.5
20260503030050 65 234 1.0 3.0 0.00 0.00 0.00 56 1013.5
20260503024552 66 347 0.0 3.0 0.00 0.00 0.00 55 1013.5
20260503023055 67 298 0.0 4.0 0.00 0.00 0.00 54 1013.5
20260503021547 68 301 1.0 2.0 0.00 0.00 0.00 53 1013.5
20260503020053 69 17 1.0 4.0 0.00 0.00 0.00 51 1013.6
20260503014601 70 216 1.0 5.0 0.00 0.00 0.00 51 1013.8
20260503013051 71 288 2.0 6.0 0.00 0.00 0.00 50 1013.8
20260503011553 72 232 1.0 6.0 0.00 0.00 0.00 49 1013.9
20260503010055 73 257 2.0 6.0 0.00 0.00 0.00 49 1014.0
20260503004613 73 321 2.0 7.0 0.00 0.00 0.00 49 1014.1
20260503003056 74 265 2.0 8.0 0.00 0.00 0.00 49 1014.1
20260503001552 74 268 2.0 8.0 0.00 0.00 0.00 49 1014.2
20260503000053 74 310 1.0 8.0 0.00 0.00 0.00 53 1014.4
20260502234556 74 19 2.0 7.0 0.00 0.00 0.00 52 1014.5
20260502233053 73 332 3.0 8.0 0.00 0.00 0.00 52 1014.6
20260502231559 72 200 2.0 8.0 0.00 0.00 0.00 54 1014.7
20260502230053 73 18 2.0 7.0 0.00 0.00 0.00 53 1015.0
20260502224552 71 11 3.0 7.0 0.00 0.00 0.00 55 1015.2
20260502223054 72 329 2.0 9.0 0.00 0.00 0.00 53 1015.6
20260502221558 71 227 4.0 8.0 0.00 0.00 0.00 53 1015.9
20260502220051 71 336 2.0 9.0 0.00 0.00 0.00 54 1016.0
20260502214557 72 264 4.0 8.0 0.00 0.00 0.00 56 1016.1
20260502213054 72 280 3.0 8.0 0.00 0.00 0.00 55 1016.4
20260502211555 71 315 2.0 10.0 0.00 0.00 0.00 55 1016.4
20260502210106 70 289 3.0 9.0 0.00 0.00 0.00 59 1016.6
20260502204558 71 286 3.0 8.0 0.00 0.00 0.00 58 1016.7
20260502203059 69 279 4.0 10.0 0.00 0.00 0.00 59 1016.8
20260502201550 70 272 3.0 9.0 0.00 0.00 0.00 62 1017.0
20260502200053 69 287 3.0 8.0 0.00 0.00 0.00 62 1017.1
20260502194556 68 302 3.0 10.0 0.00 0.00 0.00 63 1017.3
20260502193054 68 28 4.0 8.0 0.00 0.00 0.00 62 1017.3
20260502191558 68 360 3.0 10.0 0.00 0.00 0.00 60 1017.3